Location: Lombard
(41.8800°N, 88.0080°W)
Time: 23:09:39
(UTC-05:00)

Tiros 1 - Pass Details

Date: 30 January 2023
Orbit: 628 x 662 km, 48.4° (Epoch: 20 March)

Event Time Altitude Azimuth Distance (km) Brightness Sun altitude
Rises 02:47:04 0° 255° (WSW) 2,911 - -48.0°
Reaches altitude 10° 02:49:25 10° 260° (W) 2,009 - -47.6°
Maximum altitude 02:53:58 58° 339° (NNW) 744 - -46.8°
Drops below altitude 10° 02:58:36 10° 59° (ENE) 2,035 - -46.0°
Exits shadow 02:59:58 - 62° (ENE) 2,560 10.9 -45.7°
Sets 03:00:59 0° 64° (ENE) 2,952 11.3 -45.5°
